^^
Saratoga-Weather Station Historical Data
Daily Summary for April 17, 2020 Units:  Metric    English   Both
Daily Weekly Monthly Yearly Custom
  High: Low: Average:
Temperature: 20.8 °C 8.8 °C 14.6 °C
Dew Point: 7.6 °C 3.1 °C 5.3 °C
Humidity: 75% 37% 55%
Wind Speed: 17.7km/h 0km/h 3.2km/h
Wind Gust: 17.7km/h - -
Wind- - SW
Pressure: 1023.7 hPa 1020.3 hPa -
Precipitation: 0.0 mm    
Historical Graphs
 
 
Tabular Data for April 17, 2020
Time Temperature Dew Point Pressure Wind Wind Speed Wind Gust Humidity Rainfall Rate (Hourly) solar
00:04 12.6 °C 5 °C 1020.3 hPa NW 1.4 km/h 3.2 km/h 60% 0.0 mm 0 W/m2
00:09 12.6 °C 4.8 °C 1020.3 hPa NNW 3.2 km/h 4.8 km/h 59% 0.0 mm 0 W/m2
00:14 12.8 °C 5 °C 1020.3 hPa WSW 4.7 km/h 4.8 km/h 59% 0.0 mm 0 W/m2
00:19 12.9 °C 4.8 °C 1020.3 hPa SSW 7.9 km/h 9.7 km/h 58% 0.0 mm 0 W/m2
00:24 12.9 °C 4.8 °C 1020.3 hPa West 3.2 km/h 3.2 km/h 58% 0.0 mm 0 W/m2
00:29 12.9 °C 5.1 °C 1020.3 hPa NW 3.2 km/h 6.4 km/h 59% 0.0 mm 0 W/m2
00:34 12.7 °C 4.9 °C 1020.3 hPa WSW 4.7 km/h 4.8 km/h 59% 0.0 mm 0 W/m2
00:39 12.5 °C 4.9 °C 1020.3 hPa West 3.2 km/h 4.8 km/h 60% 0.0 mm 0 W/m2
00:44 12.3 °C 5 °C 1020.3 hPa WSW 3.2 km/h 4.8 km/h 61% 0.0 mm 0 W/m2
00:49 12.1 °C 4.8 °C 1020.7 hPa WNW 6.4 km/h 12.9 km/h 61% 0.0 mm 0 W/m2
00:54 12.2 °C 4.9 °C 1020.7 hPa West 3.2 km/h 4.8 km/h 61% 0.0 mm 0 W/m2
00:59 12.2 °C 5.1 °C 1020.7 hPa Calm   3.2 km/h 62% 0.0 mm 0 W/m2
01:04 12.2 °C 5.1 °C 1020.7 hPa WSW 1.4 km/h 3.2 km/h 62% 0.0 mm 0 W/m2
01:09 11.9 °C 5.1 °C 1020.7 hPa WSW 7.9 km/h 8 km/h 63% 0.0 mm 0 W/m2
01:15 11.8 °C 5.2 °C 1020.7 hPa Calm   3.2 km/h 64% 0.0 mm 0 W/m2
01:20 11.8 °C 5.2 °C 1020.7 hPa WSW 3.2 km/h 4.8 km/h 64% 0.0 mm 0 W/m2
01:25 11.8 °C 5.2 °C 1020.7 hPa NNW 3.2 km/h 6.4 km/h 64% 0.0 mm 0 W/m2
01:30 11.8 °C 5.2 °C 1020.7 hPa West 6.4 km/h 14.5 km/h 64% 0.0 mm 0 W/m2
01:35 12 °C 5.2 °C 1020.7 hPa West 3.2 km/h 9.7 km/h 63% 0.0 mm 0 W/m2
01:40 12.1 °C 5.3 °C 1020.7 hPa SSW 1.4 km/h 14.5 km/h 63% 0.0 mm 0 W/m2
01:45 12.1 °C 5.3 °C 1020.7 hPa NNW 4.7 km/h 9.7 km/h 63% 0.0 mm 0 W/m2
01:50 12 °C 5.2 °C 1021.0 hPa West 4.7 km/h 14.5 km/h 63% 0.0 mm 0 W/m2
01:55 12 °C 5.2 °C 1021.0 hPa NNW 6.4 km/h 12.9 km/h 63% 0.0 mm 0 W/m2
02:00 12 °C 5.2 °C 1021.0 hPa SSW 1.4 km/h 6.4 km/h 63% 0.0 mm 0 W/m2
02:05 12 °C 5.2 °C 1021.0 hPa East 1.4 km/h 8 km/h 63% 0.0 mm 0 W/m2
02:10 11.9 °C 5.1 °C 1021.0 hPa NNE 1.4 km/h 4.8 km/h 63% 0.0 mm 0 W/m2
02:15 11.8 °C 5 °C 1021.0 hPa NW 3.2 km/h 12.9 km/h 63% 0.0 mm 0 W/m2
02:20 11.8 °C 5.2 °C 1021.0 hPa WNW 4.7 km/h 6.4 km/h 64% 0.0 mm 0 W/m2
02:25 11.7 °C 5.1 °C 1021.0 hPa West 4.7 km/h 9.7 km/h 64% 0.0 mm 0 W/m2
02:30 11.6 °C 5 °C 1021.0 hPa WSW 1.4 km/h 8 km/h 64% 0.0 mm 0 W/m2
02:35 11.5 °C 4.9 °C 1021.0 hPa WSW 4.7 km/h 14.5 km/h 64% 0.0 mm 0 W/m2
02:40 11.4 °C 5.1 °C 1021.0 hPa WNW 6.4 km/h 6.4 km/h 65% 0.0 mm 0 W/m2
02:45 11.3 °C 5 °C 1021.0 hPa NNW 3.2 km/h 6.4 km/h 65% 0.0 mm 0 W/m2
02:50 11.2 °C 4.9 °C 1021.0 hPa West 3.2 km/h 17.7 km/h 65% 0.0 mm 0 W/m2
02:55 11.1 °C 5 °C 1021.0 hPa West 3.2 km/h 8 km/h 66% 0.0 mm 0 W/m2
03:00 11 °C 4.9 °C 1021.0 hPa WNW 3.2 km/h 11.3 km/h 66% 0.0 mm 0 W/m2
03:05 10.9 °C 4.8 °C 1021.0 hPa NNW 1.4 km/h 6.4 km/h 66% 0.0 mm 0 W/m2
03:10 10.8 °C 4.7 °C 1021.0 hPa Calm   4.8 km/h 66% 0.0 mm 0 W/m2
03:15 10.7 °C 4.8 °C 1021.0 hPa WNW 3.2 km/h 4.8 km/h 67% 0.0 mm 0 W/m2
03:20 10.6 °C 4.7 °C 1021.0 hPa NNW 4.7 km/h 6.4 km/h 67% 0.0 mm 0 W/m2
03:25 10.4 °C 4.7 °C 1021.0 hPa NW 6.4 km/h 6.4 km/h 68% 0.0 mm 0 W/m2
03:30 10.4 °C 4.7 °C 1021.0 hPa WNW 1.4 km/h 6.4 km/h 68% 0.0 mm 0 W/m2
03:35 10.4 °C 4.7 °C 1021.0 hPa NNW 3.2 km/h 4.8 km/h 68% 0.0 mm 0 W/m2
03:40 10.3 °C 4.7 °C 1021.0 hPa NW 1.4 km/h 6.4 km/h 68% 0.0 mm 0 W/m2
03:45 10.3 °C 4.7 °C 1021.0 hPa WNW 1.4 km/h 4.8 km/h 68% 0.0 mm 0 W/m2
03:50 10.2 °C 4.8 °C 1021.0 hPa West 3.2 km/h 4.8 km/h 69% 0.0 mm 0 W/m2
03:55 10.1 °C 4.7 °C 1021.0 hPa WSW 1.4 km/h 4.8 km/h 69% 0.0 mm 0 W/m2
04:00 9.9 °C 4.5 °C 1021.0 hPa Calm   1.6 km/h 69% 0.0 mm 0 W/m2
04:05 9.8 °C 4.6 °C 1021.0 hPa NW 3.2 km/h 4.8 km/h 70% 0.0 mm 0 W/m2
04:10 9.8 °C 4.6 °C 1021.3 hPa West 1.4 km/h 3.2 km/h 70% 0.0 mm 0 W/m2
04:15 9.7 °C 4.5 °C 1021.3 hPa WNW 3.2 km/h 6.4 km/h 70% 0.0 mm 0 W/m2
04:20 9.7 °C 4.5 °C 1021.3 hPa West 1.4 km/h 6.4 km/h 70% 0.0 mm 0 W/m2
04:25 9.7 °C 4.5 °C 1021.3 hPa WNW 1.4 km/h 4.8 km/h 70% 0.0 mm 0 W/m2
04:30 9.6 °C 4.4 °C 1021.3 hPa West 1.4 km/h 6.4 km/h 70% 0.0 mm 0 W/m2
04:35 9.7 °C 4.5 °C 1021.3 hPa Calm   3.2 km/h 70% 0.0 mm 0 W/m2
04:41 9.6 °C 4.4 °C 1021.3 hPa WSW 1.4 km/h 4.8 km/h 70% 0.0 mm 0 W/m2
04:46 9.7 °C 4.5 °C 1021.3 hPa WNW 7.9 km/h 8 km/h 70% 0.0 mm 0 W/m2
04:51 9.7 °C 4.5 °C 1021.3 hPa WNW 7.9 km/h 8 km/h 70% 0.0 mm 0 W/m2
04:56 9.7 °C 4.5 °C 1021.3 hPa Calm   4.8 km/h 70% 0.0 mm 0 W/m2
05:01 9.7 °C 4.5 °C 1021.3 hPa WNW 3.2 km/h 3.2 km/h 70% 0.0 mm 0 W/m2
05:06 9.6 °C 4.4 °C 1021.3 hPa Calm   6.4 km/h 70% 0.0 mm 0 W/m2
05:11 9.5 °C 4.5 °C 1021.3 hPa West 3.2 km/h 3.2 km/h 71% 0.0 mm 0 W/m2
05:16 9.4 °C 4.4 °C 1021.3 hPa WSW 4.7 km/h 6.4 km/h 71% 0.0 mm 0 W/m2
05:21 9.4 °C 4.4 °C 1021.3 hPa WSW 1.4 km/h 4.8 km/h 71% 0.0 mm 0 W/m2
05:26 9.3 °C 4.3 °C 1021.3 hPa NW 1.4 km/h 3.2 km/h 71% 0.0 mm 0 W/m2
05:31 9.2 °C 4.4 °C 1021.3 hPa WSW 3.2 km/h 3.2 km/h 72% 0.0 mm 0 W/m2
05:36 9.1 °C 4.5 °C 1021.7 hPa West 3.2 km/h 6.4 km/h 73% 0.0 mm 0 W/m2
05:41 8.9 °C 4.3 °C 1021.7 hPa NW 3.2 km/h 4.8 km/h 73% 0.0 mm 0 W/m2
05:46 8.9 °C 4.3 °C 1021.7 hPa West 1.4 km/h 6.4 km/h 73% 0.0 mm 0 W/m2
05:51 8.8 °C 4.4 °C 1021.7 hPa WSW 4.7 km/h 9.7 km/h 74% 0.0 mm 5 W/m2
05:56 8.8 °C 4.4 °C 1021.7 hPa WSW 3.2 km/h 4.8 km/h 74% 0.0 mm 7 W/m2
06:02 8.8 °C 4.4 °C 1021.7 hPa WNW 1.4 km/h 4.8 km/h 74% 0.0 mm 9 W/m2
06:07 8.8 °C 4.6 °C 1022.0 hPa West 3.2 km/h 6.4 km/h 75% 0.0 mm 12 W/m2
06:12 8.8 °C 4.6 °C 1022.0 hPa NNW 3.2 km/h 6.4 km/h 75% 0.0 mm 14 W/m2
06:17 8.8 °C 4.6 °C 1022.0 hPa West 3.2 km/h 8 km/h 75% 0.0 mm 18 W/m2
06:22 8.9 °C 4.7 °C 1022.0 hPa West 3.2 km/h 4.8 km/h 75% 0.0 mm 19 W/m2
06:27 9 °C 4.8 °C 1022.0 hPa WSW 6.4 km/h 6.4 km/h 75% 0.0 mm 23 W/m2
06:32 9.1 °C 4.9 °C 1022.0 hPa WNW 3.2 km/h 6.4 km/h 75% 0.0 mm 25 W/m2
06:37 9.1 °C 4.9 °C 1022.0 hPa Calm   3.2 km/h 75% 0.0 mm 28 W/m2
06:42 9.2 °C 5 °C 1022.0 hPa West 3.2 km/h 4.8 km/h 75% 0.0 mm 30 W/m2
06:47 9.2 °C 4.8 °C 1022.0 hPa WNW 4.7 km/h 4.8 km/h 74% 0.0 mm 32 W/m2
06:52 9.2 °C 4.8 °C 1022.4 hPa West 3.2 km/h 3.2 km/h 74% 0.0 mm 33 W/m2
06:57 9.3 °C 4.9 °C 1022.4 hPa North 4.7 km/h 6.4 km/h 74% 0.0 mm 35 W/m2
07:02 9.3 °C 4.9 °C 1022.4 hPa West 3.2 km/h 4.8 km/h 74% 0.0 mm 37 W/m2
07:07 9.3 °C 4.7 °C 1022.4 hPa North 1.4 km/h 4.8 km/h 73% 0.0 mm 39 W/m2
07:12 9.4 °C 4.8 °C 1022.4 hPa North 4.7 km/h 4.8 km/h 73% 0.0 mm 40 W/m2
07:17 9.4 °C 4.8 °C 1022.4 hPa NW 3.2 km/h 4.8 km/h 73% 0.0 mm 42 W/m2
07:22 9.5 °C 4.7 °C 1022.4 hPa West 6.4 km/h 6.4 km/h 72% 0.0 mm 42 W/m2
07:27 9.6 °C 4.8 °C 1022.4 hPa NNE 4.7 km/h 6.4 km/h 72% 0.0 mm 44 W/m2
07:32 9.7 °C 4.9 °C 1022.4 hPa NW 1.4 km/h 3.2 km/h 72% 0.0 mm 44 W/m2
07:37 9.7 °C 4.7 °C 1022.4 hPa WNW 1.4 km/h 4.8 km/h 71% 0.0 mm 46 W/m2
07:42 9.8 °C 4.8 °C 1022.7 hPa Calm   1.6 km/h 71% 0.0 mm 46 W/m2
07:47 9.9 °C 4.9 °C 1022.7 hPa North 4.7 km/h 9.7 km/h 71% 0.0 mm 176 W/m2
07:52 9.9 °C 4.7 °C 1022.7 hPa WNW 1.4 km/h 4.8 km/h 70% 0.0 mm 253 W/m2
07:57 10.2 °C 5 °C 1022.7 hPa WNW 4.7 km/h 8 km/h 70% 0.0 mm 265 W/m2
08:02 10.3 °C 4.9 °C 1022.7 hPa East 3.2 km/h 8 km/h 69% 0.0 mm 276 W/m2
08:07 10.4 °C 4.7 °C 1022.7 hPa NW 1.4 km/h 6.4 km/h 68% 0.0 mm 294 W/m2
08:12 10.7 °C 5 °C 1022.7 hPa NW 3.2 km/h 6.4 km/h 68% 0.0 mm 306 W/m2
08:17 10.8 °C 5.1 °C 1022.7 hPa East 1.4 km/h 6.4 km/h 68% 0.0 mm 315 W/m2
08:22 11 °C 4.9 °C 1023.0 hPa NW 3.2 km/h 14.5 km/h 66% 0.0 mm 336 W/m2
08:27 10.9 °C 5 °C 1023.0 hPa West 1.4 km/h 3.2 km/h 67% 0.0 mm 348 W/m2
08:32 11.2 °C 5.3 °C 1023.0 hPa East 3.2 km/h 14.5 km/h 67% 0.0 mm 364 W/m2
08:37 11.2 °C 5.1 °C 1023.0 hPa Calm   3.2 km/h 66% 0.0 mm 376 W/m2
08:42 11.4 °C 5.3 °C 1023.0 hPa NNE 1.4 km/h 4.8 km/h 66% 0.0 mm 388 W/m2
08:47 11.6 °C 5.2 °C 1023.0 hPa NE 4.7 km/h 9.7 km/h 65% 0.0 mm 401 W/m2
08:52 11.6 °C 5.2 °C 1023.0 hPa South 1.4 km/h 4.8 km/h 65% 0.0 mm 415 W/m2
08:57 11.8 °C 5.4 °C 1023.0 hPa WNW 4.7 km/h 6.4 km/h 65% 0.0 mm 427 W/m2
09:02 11.9 °C 5.3 °C 1023.4 hPa NE 4.7 km/h 6.4 km/h 64% 0.0 mm 439 W/m2
09:07 12.1 °C 5.3 °C 1023.0 hPa ESE 3.2 km/h 3.2 km/h 63% 0.0 mm 455 W/m2
09:12 12.3 °C 5.7 °C 1023.4 hPa ENE 1.4 km/h 6.4 km/h 64% 0.0 mm 471 W/m2
09:17 12.6 °C 5.5 °C 1023.0 hPa NE 4.7 km/h 11.3 km/h 62% 0.0 mm 482 W/m2
09:22 12.7 °C 5.1 °C 1023.0 hPa WNW 3.2 km/h 6.4 km/h 60% 0.0 mm 496 W/m2
09:28 12.7 °C 5.1 °C 1023.4 hPa NE 3.2 km/h 9.7 km/h 60% 0.0 mm 510 W/m2
09:33 12.9 °C 4.8 °C 1023.4 hPa WNW 4.7 km/h 4.8 km/h 58% 0.0 mm 520 W/m2
09:38 13.2 °C 4.9 °C 1023.4 hPa NNE 3.2 km/h 6.4 km/h 57% 0.0 mm 536 W/m2
09:43 13.4 °C 5.1 °C 1023.4 hPa NNE 3.2 km/h 12.9 km/h 57% 0.0 mm 548 W/m2
09:48 13.6 °C 5.2 °C 1023.4 hPa NW 6.4 km/h 6.4 km/h 57% 0.0 mm 555 W/m2
09:53 13.5 °C 4.6 °C 1023.4 hPa WNW 6.4 km/h 12.9 km/h 55% 0.0 mm 566 W/m2
09:58 13.3 °C 4.7 °C 1023.4 hPa WNW 6.4 km/h 9.7 km/h 56% 0.0 mm 577 W/m2
10:03 13.3 °C 5.2 °C 1023.4 hPa West 3.2 km/h 6.4 km/h 58% 0.0 mm 591 W/m2
10:08 13.4 °C 4.5 °C 1023.4 hPa North 6.4 km/h 12.9 km/h 55% 0.0 mm 601 W/m2
10:13 13.4 °C 4.3 °C 1023.4 hPa SW 7.9 km/h 8 km/h 54% 0.0 mm 524 W/m2
10:18 13.3 °C 4.4 °C 1023.4 hPa East 9.7 km/h 11.3 km/h 55% 0.0 mm 54 W/m2
10:23 13.4 °C 4.5 °C 1023.4 hPa WNW 6.4 km/h 8 km/h 55% 0.0 mm 635 W/m2
10:28 13.3 °C 4.2 °C 1023.4 hPa North 4.7 km/h 14.5 km/h 54% 0.0 mm 645 W/m2
10:33 13.6 °C 5 °C 1023.4 hPa ESE 6.4 km/h 6.4 km/h 56% 0.0 mm 650 W/m2
10:38 14.1 °C 4.9 °C 1023.4 hPa East 3.2 km/h 14.5 km/h 54% 0.0 mm 666 W/m2
10:43 14.2 °C 4.5 °C 1023.4 hPa Calm   6.4 km/h 52% 0.0 mm 675 W/m2
10:48 14.3 °C 4.8 °C 1023.4 hPa ENE 4.7 km/h 6.4 km/h 53% 0.0 mm 682 W/m2
10:53 14.4 °C 4.9 °C 1023.4 hPa ENE 7.9 km/h 12.9 km/h 53% 0.0 mm 693 W/m2
10:58 14.6 °C 5.4 °C 1023.4 hPa NE 1.4 km/h 4.8 km/h 54% 0.0 mm 701 W/m2
11:03 14.8 °C 5 °C 1023.4 hPa NW 1.4 km/h 4.8 km/h 52% 0.0 mm 710 W/m2
11:08 14.8 °C 4.8 °C 1023.4 hPa ESE 4.7 km/h 6.4 km/h 51% 0.0 mm 717 W/m2
11:13 14.9 °C 4.9 °C 1023.4 hPa NE 3.2 km/h 12.9 km/h 51% 0.0 mm 728 W/m2
11:18 14.9 °C 4.9 °C 1023.7 hPa NNW 3.2 km/h 11.3 km/h 51% 0.0 mm 735 W/m2
11:23 14.9 °C 4.9 °C 1023.7 hPa West 3.2 km/h 12.9 km/h 51% 0.0 mm 740 W/m2
11:28 14.9 °C 4.9 °C 1023.4 hPa WSW 7.9 km/h 9.7 km/h 51% 0.0 mm 751 W/m2
11:33 14.9 °C 4.6 °C 1023.4 hPa WNW 4.7 km/h 6.4 km/h 50% 0.0 mm 754 W/m2
11:38 14.9 °C 4.9 °C 1023.7 hPa SW 1.4 km/h 8 km/h 51% 0.0 mm 763 W/m2
11:43 15.3 °C 5.2 °C 1023.7 hPa ESE 1.4 km/h 4.8 km/h 51% 0.0 mm 772 W/m2
11:48 15.5 °C 4.5 °C 1023.7 hPa West 6.4 km/h 9.7 km/h 48% 0.0 mm 775 W/m2
11:53 15.6 °C 4.6 °C 1023.7 hPa NE 6.4 km/h 6.4 km/h 48% 0.0 mm 786 W/m2
11:58 15.6 °C 4 °C 1023.4 hPa West 4.7 km/h 4.8 km/h 46% 0.0 mm 791 W/m2
12:03 15.7 °C 4.1 °C 1023.7 hPa ENE 4.7 km/h 6.4 km/h 46% 0.0 mm 793 W/m2
12:08 15.9 °C 4 °C 1023.7 hPa ESE 3.2 km/h 3.2 km/h 45% 0.0 mm 803 W/m2
12:13 15.9 °C 3.7 °C 1023.7 hPa NW 4.7 km/h 11.3 km/h 44% 0.0 mm 807 W/m2
12:18 16 °C 3.7 °C 1023.4 hPa NE 3.2 km/h 4.8 km/h 44% 0.0 mm 814 W/m2
12:23 16 °C 3.7 °C 1023.7 hPa ENE 3.2 km/h 11.3 km/h 44% 0.0 mm 814 W/m2
12:28 16 °C 3.4 °C 1023.7 hPa East 11.1 km/h 12.9 km/h 43% 0.0 mm 821 W/m2
12:33 16.2 °C 4.6 °C 1023.7 hPa East 4.7 km/h 4.8 km/h 46% 0.0 mm 823 W/m2
12:38 16.3 °C 4 °C 1023.7 hPa Calm   14.5 km/h 44% 0.0 mm 826 W/m2
12:43 16.4 °C 5.4 °C 1023.7 hPa NW 1.4 km/h 4.8 km/h 48% 0.0 mm 830 W/m2
12:48 16.6 °C 4.3 °C 1023.4 hPa WSW 3.2 km/h 6.4 km/h 44% 0.0 mm 780 W/m2
12:53 16.7 °C 3.7 °C 1023.4 hPa NNW 3.2 km/h 4.8 km/h 42% 0.0 mm 817 W/m2
12:58 16.8 °C 4.5 °C 1023.4 hPa NE 7.9 km/h 12.9 km/h 44% 0.0 mm 830 W/m2
13:03 16.6 °C 4.3 °C 1023.4 hPa NE 1.4 km/h 3.2 km/h 44% 0.0 mm 835 W/m2
13:08 16.8 °C 4.5 °C 1023.4 hPa ENE 4.7 km/h 11.3 km/h 44% 0.0 mm 833 W/m2
13:13 17 °C 4.7 °C 1023.4 hPa NW 1.4 km/h 6.4 km/h 44% 0.0 mm 838 W/m2
13:18 17 °C 4.3 °C 1023.4 hPa WNW 3.2 km/h 11.3 km/h 43% 0.0 mm 840 W/m2
13:23 16.7 °C 3.7 °C 1023.4 hPa West 6.4 km/h 8 km/h 42% 0.0 mm 837 W/m2
13:28 16.8 °C 4.1 °C 1023.4 hPa West 3.2 km/h 12.9 km/h 43% 0.0 mm 835 W/m2
13:33 17.2 °C 4.5 °C 1023.4 hPa ESE 4.7 km/h 6.4 km/h 43% 0.0 mm 835 W/m2
13:38 17.4 °C 3.7 °C 1023.4 hPa West 3.2 km/h 11.3 km/h 40% 0.0 mm 840 W/m2
13:43 17.4 °C 4.7 °C 1023.4 hPa Calm   4.8 km/h 43% 0.0 mm 838 W/m2
13:48 17.6 °C 3.1 °C 1023.4 hPa NNW 4.7 km/h 4.8 km/h 38% 0.0 mm 837 W/m2
13:53 17.6 °C 3.1 °C 1023.4 hPa WNW 4.7 km/h 6.4 km/h 38% 0.0 mm 814 W/m2
13:58 17.6 °C 4.2 °C 1023.4 hPa East 4.7 km/h 11.3 km/h 41% 0.0 mm 831 W/m2
14:03 17.6 °C 4.2 °C 1023.4 hPa East 3.2 km/h 6.4 km/h 41% 0.0 mm 828 W/m2
14:08 17.8 °C 4 °C 1023.4 hPa East 7.9 km/h 11.3 km/h 40% 0.0 mm 830 W/m2
14:13 18 °C 4.9 °C 1023.4 hPa NNE 3.2 km/h 8 km/h 42% 0.0 mm 824 W/m2
14:18 17.9 °C 3.7 °C 1023.4 hPa NNW 1.4 km/h 6.4 km/h 39% 0.0 mm 821 W/m2
14:23 18 °C 4.2 °C 1023.4 hPa East 3.2 km/h 3.2 km/h 40% 0.0 mm 821 W/m2
14:28 18.2 °C 4.4 °C 1023.4 hPa ENE 7.9 km/h 8 km/h 40% 0.0 mm 816 W/m2
14:33 18.1 °C 5 °C 1023.0 hPa North 3.2 km/h 3.2 km/h 42% 0.0 mm 810 W/m2
14:38 18.3 °C 4.5 °C 1023.0 hPa North 1.4 km/h 9.7 km/h 40% 0.0 mm 809 W/m2
14:43 18.2 °C 4.7 °C 1023.0 hPa WNW 4.7 km/h 6.4 km/h 41% 0.0 mm 800 W/m2
14:48 18.2 °C 4.4 °C 1023.0 hPa North 3.2 km/h 6.4 km/h 40% 0.0 mm 796 W/m2
14:53 18.2 °C 4.7 °C 1023.0 hPa West 6.4 km/h 12.9 km/h 41% 0.0 mm 788 W/m2
14:59 18.2 °C 4 °C 1023.0 hPa North 3.2 km/h 4.8 km/h 39% 0.0 mm 784 W/m2
15:04 18.3 °C 4.8 °C 1023.0 hPa NE 1.4 km/h 12.9 km/h 41% 0.0 mm 777 W/m2
15:09 18.4 °C 4.6 °C 1023.0 hPa SSE 1.4 km/h 11.3 km/h 40% 0.0 mm 777 W/m2
15:14 18.7 °C 5.2 °C 1022.7 hPa East 3.2 km/h 6.4 km/h 41% 0.0 mm 770 W/m2
15:19 18.8 °C 4.9 °C 1022.7 hPa ENE 17.7 km/h 17.7 km/h 40% 0.0 mm 765 W/m2
15:24 18.9 °C 5 °C 1023.0 hPa ENE 1.4 km/h 9.7 km/h 40% 0.0 mm 752 W/m2
15:29 18.9 °C 5 °C 1022.7 hPa NE 3.2 km/h 11.3 km/h 40% 0.0 mm 745 W/m2
15:34 19 °C 5.4 °C 1022.7 hPa West 3.2 km/h 4.8 km/h 41% 0.0 mm 737 W/m2
15:39 19.3 °C 5.7 °C 1022.7 hPa North 3.2 km/h 6.4 km/h 41% 0.0 mm 729 W/m2
15:44 19.4 °C 4.7 °C 1022.7 hPa WNW 1.4 km/h 4.8 km/h 38% 0.0 mm 722 W/m2
15:49 19.3 °C 5.7 °C 1022.7 hPa West 9.7 km/h 11.3 km/h 41% 0.0 mm 712 W/m2
15:54 19.2 °C 5.3 °C 1022.7 hPa NW 1.4 km/h 8 km/h 40% 0.0 mm 705 W/m2
15:59 19.3 °C 5 °C 1022.7 hPa Calm   4.8 km/h 39% 0.0 mm 696 W/m2
16:04 19.3 °C 5.7 °C 1022.7 hPa WNW 3.2 km/h 8 km/h 41% 0.0 mm 687 W/m2
16:09 19.4 °C 5.5 °C 1022.7 hPa ESE 3.2 km/h 6.4 km/h 40% 0.0 mm 677 W/m2
16:14 19.7 °C 5.7 °C 1022.7 hPa North 6.4 km/h 9.7 km/h 40% 0.0 mm 671 W/m2
16:19 19.7 °C 5.4 °C 1022.4 hPa NNE 3.2 km/h 3.2 km/h 39% 0.0 mm 661 W/m2
16:24 19.6 °C 5.3 °C 1022.4 hPa SE 3.2 km/h 9.7 km/h 39% 0.0 mm 649 W/m2
16:29 19.7 °C 5.7 °C 1022.4 hPa NNW 3.2 km/h 6.4 km/h 40% 0.0 mm 640 W/m2
16:34 19.9 °C 5.2 °C 1022.4 hPa West 9.7 km/h 12.9 km/h 38% 0.0 mm 631 W/m2
16:39 19.9 °C 5.9 °C 1022.4 hPa East 3.2 km/h 8 km/h 40% 0.0 mm 621 W/m2
16:44 20 °C 5.2 °C 1022.4 hPa WNW 7.9 km/h 12.9 km/h 38% 0.0 mm 612 W/m2
16:49 19.9 °C 5.5 °C 1022.4 hPa West 6.4 km/h 11.3 km/h 39% 0.0 mm 599 W/m2
16:54 19.8 °C 5.8 °C 1022.4 hPa West 4.7 km/h 11.3 km/h 40% 0.0 mm 585 W/m2
16:59 19.8 °C 6.2 °C 1022.4 hPa NNW 4.7 km/h 4.8 km/h 41% 0.0 mm 575 W/m2
17:04 19.9 °C 5.9 °C 1022.0 hPa Calm   6.4 km/h 40% 0.0 mm 564 W/m2
17:09 20.1 °C 5.7 °C 1022.0 hPa Calm   3.2 km/h 39% 0.0 mm 554 W/m2
17:14 20.2 °C 5.4 °C 1022.0 hPa ENE 3.2 km/h 3.2 km/h 38% 0.0 mm 540 W/m2
17:19 20.1 °C 5.3 °C 1022.0 hPa East 1.4 km/h 4.8 km/h 38% 0.0 mm 531 W/m2
17:24 20.2 °C 5.8 °C 1022.0 hPa ESE 3.2 km/h 4.8 km/h 39% 0.0 mm 519 W/m2
17:29 20.3 °C 5.9 °C 1022.0 hPa NE 4.7 km/h 4.8 km/h 39% 0.0 mm 510 W/m2
17:34 20.3 °C 5.5 °C 1022.0 hPa NW 1.4 km/h 6.4 km/h 38% 0.0 mm 497 W/m2
17:39 20.3 °C 5.5 °C 1021.7 hPa ESE 1.4 km/h 6.4 km/h 38% 0.0 mm 485 W/m2
17:44 20.5 °C 5.7 °C 1022.0 hPa NNW 3.2 km/h 14.5 km/h 38% 0.0 mm 469 W/m2
17:49 20.6 °C 5.8 °C 1022.0 hPa WNW 3.2 km/h 8 km/h 38% 0.0 mm 455 W/m2
17:54 20.6 °C 5.4 °C 1021.7 hPa East 4.7 km/h 14.5 km/h 37% 0.0 mm 443 W/m2
17:59 20.4 °C 5.6 °C 1021.7 hPa NW 1.4 km/h 6.4 km/h 38% 0.0 mm 427 W/m2
18:04 20.4 °C 6 °C 1021.7 hPa NE 4.7 km/h 8 km/h 39% 0.0 mm 418 W/m2
18:09 20.4 °C 5.6 °C 1021.7 hPa SSE 1.4 km/h 6.4 km/h 38% 0.0 mm 406 W/m2
18:14 20.4 °C 5.2 °C 1021.7 hPa NNW 6.4 km/h 9.7 km/h 37% 0.0 mm 394 W/m2
18:20 20.5 °C 5.3 °C 1021.7 hPa NNW 4.7 km/h 4.8 km/h 37% 0.0 mm 378 W/m2
18:25 20.6 °C 5.4 °C 1021.7 hPa SW 3.2 km/h 9.7 km/h 37% 0.0 mm 362 W/m2
18:30 20.5 °C 5.3 °C 1021.7 hPa NNW 4.7 km/h 8 km/h 37% 0.0 mm 350 W/m2
18:35 20.6 °C 5.4 °C 1021.7 hPa ENE 4.7 km/h 8 km/h 37% 0.0 mm 338 W/m2
18:40 20.5 °C 5.3 °C 1021.7 hPa NE 1.4 km/h 4.8 km/h 37% 0.0 mm 323 W/m2
18:45 20.6 °C 5.8 °C 1021.7 hPa NNE 3.2 km/h 4.8 km/h 38% 0.0 mm 311 W/m2
18:50 20.7 °C 5.9 °C 1021.7 hPa NNW 6.4 km/h 6.4 km/h 38% 0.0 mm 295 W/m2
18:55 20.8 °C 6 °C 1021.7 hPa WNW 4.7 km/h 11.3 km/h 38% 0.0 mm 283 W/m2
19:00 20.8 °C 6 °C 1021.7 hPa WNW 1.4 km/h 4.8 km/h 38% 0.0 mm 269 W/m2
19:05 20.7 °C 5.5 °C 1021.7 hPa NW 11.3 km/h 11.3 km/h 37% 0.0 mm 257 W/m2
19:11 20.6 °C 5.8 °C 1021.7 hPa NW 1.4 km/h 4.8 km/h 38% 0.0 mm 241 W/m2
19:16 20.6 °C 5.8 °C 1021.7 hPa NNW 7.9 km/h 9.7 km/h 38% 0.0 mm 229 W/m2
19:21 20.4 °C 5.6 °C 1021.7 hPa WNW 6.4 km/h 8 km/h 38% 0.0 mm 216 W/m2
19:26 20.3 °C 5.9 °C 1021.7 hPa ENE 6.4 km/h 6.4 km/h 39% 0.0 mm 199 W/m2
19:31 20.3 °C 6.3 °C 1021.7 hPa NNW 4.7 km/h 6.4 km/h 40% 0.0 mm 185 W/m2
19:36 20.3 °C 5.9 °C 1021.7 hPa NE 3.2 km/h 4.8 km/h 39% 0.0 mm 172 W/m2
19:41 20.2 °C 5.8 °C 1021.7 hPa North 1.4 km/h 8 km/h 39% 0.0 mm 158 W/m2
19:46 20.2 °C 5.8 °C 1021.7 hPa WNW 3.2 km/h 6.4 km/h 39% 0.0 mm 141 W/m2
19:51 20.2 °C 5.8 °C 1021.7 hPa NNW 3.2 km/h 8 km/h 39% 0.0 mm 128 W/m2
19:56 20.1 °C 5.7 °C 1021.7 hPa NNE 1.4 km/h 4.8 km/h 39% 0.0 mm 113 W/m2
20:01 20.1 °C 5.7 °C 1021.7 hPa Calm   4.8 km/h 39% 0.0 mm 102 W/m2
20:06 20.1 °C 6.1 °C 1021.7 hPa NE 3.2 km/h 4.8 km/h 40% 0.0 mm 88 W/m2
20:11 20 °C 6 °C 1021.7 hPa West 6.4 km/h 6.4 km/h 40% 0.0 mm 77 W/m2
20:16 19.9 °C 5.9 °C 1021.7 hPa NNW 1.4 km/h 6.4 km/h 40% 0.0 mm 67 W/m2
20:21 19.8 °C 6.2 °C 1021.7 hPa West 1.4 km/h 6.4 km/h 41% 0.0 mm 58 W/m2
20:26 19.7 °C 6.1 °C 1021.7 hPa West 3.2 km/h 4.8 km/h 41% 0.0 mm 47 W/m2
20:31 19.4 °C 6.2 °C 1021.7 hPa West 3.2 km/h 3.2 km/h 42% 0.0 mm 40 W/m2
20:36 19.3 °C 6.7 °C 1021.7 hPa West 3.2 km/h 4.8 km/h 44% 0.0 mm 33 W/m2
20:41 18.9 °C 7 °C 1021.7 hPa West 3.2 km/h 3.2 km/h 46% 0.0 mm 26 W/m2
20:46 18.7 °C 7.2 °C 1021.7 hPa Calm   4.8 km/h 47% 0.0 mm 21 W/m2
20:51 18.4 °C 6.9 °C 1021.7 hPa WSW 1.4 km/h 3.2 km/h 47% 0.0 mm 16 W/m2
20:56 18.2 °C 7 °C 1021.7 hPa WSW 1.4 km/h 4.8 km/h 48% 0.0 mm 14 W/m2
21:01 17.9 °C 7.3 °C 1021.7 hPa Calm     50% 0.0 mm 11 W/m2
21:06 17.6 °C 7.6 °C 1021.7 hPa Calm   3.2 km/h 52% 0.0 mm 9 W/m2
21:11 17.3 °C 7.3 °C 1021.7 hPa Calm   1.6 km/h 52% 0.0 mm 7 W/m2
21:16 17 °C 7.3 °C 1021.7 hPa WSW 1.4 km/h 3.2 km/h 53% 0.0 mm 5 W/m2
21:21 16.6 °C 7.3 °C 1021.7 hPa Calm     54% 0.0 mm 0 W/m2
21:26 16.2 °C 7.4 °C 1021.7 hPa Calm     56% 0.0 mm 0 W/m2
21:31 15.9 °C 7.1 °C 1022.0 hPa Calm     56% 0.0 mm 0 W/m2
21:36 15.6 °C 7.1 °C 1022.0 hPa Calm   1.6 km/h 57% 0.0 mm 0 W/m2
21:41 15.2 °C 6.7 °C 1022.0 hPa WSW 1.4 km/h 3.2 km/h 57% 0.0 mm 0 W/m2
21:46 15 °C 6.8 °C 1022.4 hPa West 1.4 km/h 1.6 km/h 58% 0.0 mm 0 W/m2
21:51 14.8 °C 6.9 °C 1022.4 hPa Calm   1.6 km/h 59% 0.0 mm 0 W/m2
21:56 14.7 °C 7 °C 1022.4 hPa Calm   1.6 km/h 60% 0.0 mm 0 W/m2
22:01 14.6 °C 6.9 °C 1022.4 hPa Calm     60% 0.0 mm 0 W/m2
22:06 14.5 °C 7.1 °C 1022.4 hPa Calm     61% 0.0 mm 0 W/m2
22:11 14.3 °C 7.1 °C 1022.4 hPa Calm     62% 0.0 mm 0 W/m2
22:16 14.2 °C 7 °C 1022.4 hPa Calm     62% 0.0 mm 0 W/m2
22:21 14.1 °C 7.2 °C 1022.4 hPa Calm     63% 0.0 mm 0 W/m2
22:26 13.9 °C 7.2 °C 1022.4 hPa Calm     64% 0.0 mm 0 W/m2
22:31 13.7 °C 7.2 °C 1022.7 hPa West 3.2 km/h 3.2 km/h 65% 0.0 mm 0 W/m2
22:36 13.7 °C 7.5 °C 1022.7 hPa West 1.4 km/h 3.2 km/h 66% 0.0 mm 0 W/m2
22:41 13.6 °C 7.4 °C 1022.7 hPa West 1.4 km/h 3.2 km/h 66% 0.0 mm 0 W/m2
22:46 13.4 °C 7.2 °C 1022.7 hPa WSW 1.4 km/h 3.2 km/h 66% 0.0 mm 0 W/m2
22:51 13.4 °C 7.2 °C 1022.7 hPa WSW 3.2 km/h 3.2 km/h 66% 0.0 mm 0 W/m2
22:56 13.5 °C 7.3 °C 1022.7 hPa WNW 3.2 km/h 3.2 km/h 66% 0.0 mm 0 W/m2
23:01 13.6 °C 7.4 °C 1022.7 hPa WNW 3.2 km/h 3.2 km/h 66% 0.0 mm 0 W/m2
23:06 13.6 °C 7.4 °C 1022.7 hPa WNW 1.4 km/h 3.2 km/h 66% 0.0 mm 0 W/m2
23:11 13.5 °C 7.3 °C 1022.7 hPa WNW 1.4 km/h 1.6 km/h 66% 0.0 mm 0 W/m2
23:16 13.4 °C 7.2 °C 1022.7 hPa WNW 1.4 km/h 3.2 km/h 66% 0.0 mm 0 W/m2
23:21 13.3 °C 7.3 °C 1022.4 hPa WNW 1.4 km/h 3.2 km/h 67% 0.0 mm 0 W/m2
23:26 13.2 °C 7.2 °C 1022.4 hPa WNW 1.4 km/h 3.2 km/h 67% 0.0 mm 0 W/m2
23:31 13.1 °C 7.3 °C 1022.4 hPa Calm   1.6 km/h 68% 0.0 mm 0 W/m2
23:36 12.9 °C 7.1 °C 1022.4 hPa WNW 1.4 km/h 3.2 km/h 68% 0.0 mm 0 W/m2
23:41 12.7 °C 7.2 °C 1022.4 hPa West 1.4 km/h 4.8 km/h 69% 0.0 mm 0 W/m2
23:46 12.6 °C 7.3 °C 1022.4 hPa WNW 1.4 km/h 3.2 km/h 70% 0.0 mm 0 W/m2
23:51 12.4 °C 7.1 °C 1022.4 hPa WNW 3.2 km/h 3.2 km/h 70% 0.0 mm 0 W/m2
23:56 12.4 °C 7.3 °C 1022.4 hPa Calm   3.2 km/h 71% 0.0 mm 0 W/m2
Juneau County Weather
Compliments of Weather Underground - 2 mb